#timestamp,LO_Frequency,Hit,StdDev 
1620010815.4,286046999.2,N
1620010835.3,286046998.2,N
1620010855.1,286047000.7,N
1620010875.8,286047002.0,N
1620010895.7,286047002.6,N
1620010915.5,286046999.8,N
1620010935.4,286047000.9,N
1620010955.2,286046999.9,N
1620010975.0,286047002.7,N
1620010975.9,286047002.7,N
1620010995.8,286047000.3,N
1620011015.6,286047000.6,N
1620011035.5,286047001.6,N
1620011055.3,286046999.7,N
1620011075.1,286047000.9,N
1620011095.9,286046998.1,N
1620011115.7,286047001.1,N
1620011135.5,286046999.5,N
1620011155.4,286046997.0,N
1620011175.2,286046997.9,N
1620011195.1,286046997.6,N
1620011196.0,286046997.6,N
1620011215.8,286046996.9,N
1620011235.6,286046996.7,N
1620011255.5,286046996.9,N
1620011275.3,286046999.0,N
1620011295.1,286046999.3,N
1620011315.9,286046999.3,N
1620011335.7,286046998.9,N
1620011355.6,286046997.2,N
1620011375.4,286046997.3,N
1620011395.2,286046999.2,N
1620011415.1,286046994.9,N
1620011416.0,286046994.9,N
1620011435.8,286046995.2,N
1620011455.7,286046997.6,N
1620011475.5,286046997.9,N
1620011495.3,286046995.6,N
1620011515.2,286046995.6,N
1620011535.0,286046993.6,Y
1620011535.9,286046993.6,P
1620011555.8,286046997.2,N
1620011575.6,286046999.4,N
1620011595.4,286046996.5,N
1620011615.3,286046999.3,N
1620011635.1,286046999.5,N
1620011655.8,286046997.6,N
1620011675.7,286046996.1,N
1620011695.5,286046997.9,N
1620011715.4,286046995.7,N
1620011735.2,286046995.5,N
1620011755.0,286046997.6,N
1620011755.9,286046997.6,N
1620011775.8,286046996.5,N
1620011795.6,286046996.9,N
1620011815.4,286046999.6,N
1620011835.3,286046996.5,N
1620011855.1,286046999.1,N
1620011875.9,286046999.5,N
1620011895.7,286046997.4,N
1620011915.5,286046997.8,N
1620011935.4,286046997.4,N
1620011955.2,286046996.6,N
1620011975.1,286046996.7,N
1620011976.0,286046996.7,N
1620011995.8,286047000.9,N
1620012015.6,286047004.0,N
1620012035.5,286047002.6,N
1620012055.3,286047000.1,N
1620012075.1,286046998.3,N
1620012095.9,286046999.5,N
1620012115.7,286046997.7,N
1620012135.6,286046995.1,N
1620012155.4,286046995.3,N
1620012175.2,286046996.7,N
1620012195.1,286046995.2,N
1620012196.0,286046995.2,N
1620012215.8,286046998.0,N
1620012235.7,286046997.1,N
1620012255.5,286046999.1,N
1620012275.3,286046999.6,N
1620012295.2,286046998.8,N
1620012315.0,286047000.8,N
1620012315.9,286047000.8,N
1620012335.8,286046998.8,N
1620012355.6,286046998.1,N
1620012375.4,286047000.8,N
1620012395.3,286047000.8,N
1620012415.1,286047000.9,N
1620012435.8,286047002.5,N
1620012455.7,286046999.7,N
1620012475.5,286047002.7,N
1620012495.4,286047002.6,N
1620012515.2,286047002.2,N
1620012535.0,286047002.6,N
1620012535.9,286047002.6,N
1620012555.8,286047000.8,N
1620012575.6,286047001.2,N
1620012595.4,286046999.9,N
1620012615.3,286047002.4,N
1620012635.1,286047001.4,N
1620012655.9,286047000.1,N
1620012675.7,286047000.2,N
1620012695.5,286046999.7,N
1620012715.4,286047002.7,N
1620012735.2,286047002.8,N
1620012755.0,286047002.3,N
1620012755.9,286047002.3,N
1620012775.8,286046998.6,N
1620012795.6,286047001.2,N
1620012815.5,286047000.5,N
1620012835.3,286047000.8,N
1620012855.1,286047001.0,N
1620012875.9,286046997.0,N
1620012895.7,286046998.0,N
1620012915.6,286046995.9,N
1620012935.4,286046996.4,N
1620012955.2,286046993.7,Y
1620012975.1,286046995.1,P
1620012976.0,286046995.1,N
1620012995.8,286046995.4,N
1620013015.7,286046996.6,N
1620013035.5,286046997.5,N
1620013055.3,286046997.2,N
1620013075.2,286046995.1,N
1620013095.0,286046996.2,N
1620013095.9,286046996.2,N
1620013115.8,286046995.0,Y
1620013135.6,286047001.2,P
1620013155.4,286046999.4,N
1620013175.3,286046997.0,N
1620013195.1,286046998.6,N
1620013215.8,286047002.8,N
1620013235.7,286047002.4,N
1620013255.5,286047002.0,N
1620013275.4,286047001.9,N
1620013295.2,286047002.2,N
1620013315.0,286047002.3,N
1620013315.9,286047002.3,N
1620013335.8,286047004.0,N
1620013355.6,286047000.3,N
1620013375.5,286047001.0,N
1620013395.3,286047000.3,N
1620013415.1,286047002.6,N
1620013435.9,286047001.3,N
1620013455.7,286047001.9,N
1620013475.6,286047011.9,Y
1620013495.4,286047002.0,P
1620013515.2,286047003.7,P
1620013535.1,286047005.7,P
1620013536.0,286047005.7,Y
1620013555.8,286047001.9,P
1620013575.7,286047001.3,N
1620013595.5,286047002.4,P
1620013615.3,286046999.8,N
1620013635.2,286047000.4,N
1620013655.0,286047000.1,N
1620013655.9,286047000.1,N
1620013675.7,286047002.3,N
1620013695.6,286047003.9,Y
1620013715.4,286046999.8,P
1620013735.3,286047002.0,N
1620013755.1,286046999.8,N
1620013775.8,286047000.0,N
1620013795.7,286046999.4,N
1620013815.5,286046999.5,N
1620013835.4,286046996.8,Y
1620013855.2,286046997.4,P
1620013875.0,286046997.0,N
1620013875.9,286046997.0,N
1620013895.8,286046998.2,N
1620013915.6,286046998.1,N
1620013935.4,286046998.3,N
1620013955.3,286046998.3,N
1620013975.1,286046998.2,N
1620013995.9,286046999.0,N
1620014015.7,286046999.3,N
1620014035.5,286046998.9,N
1620014055.4,286047000.5,N
1620014075.2,286046998.8,N
1620014095.0,286046996.9,Y
1620014095.9,286046996.9,P
1620014115.8,286047001.1,N
1620014135.6,286047001.2,N
1620014155.5,286047000.3,N
1620014175.3,286047000.4,N
1620014195.1,286046998.3,N
1620014215.9,286046998.7,N
1620014235.7,286047001.0,N
1620014255.5,286047000.5,N
1620014275.4,286047001.1,N
1620014295.2,286047001.1,N
1620014315.1,286047000.8,N
1620014316.0,286047000.8,N
1620014335.8,286046999.4,N
1620014355.6,286046999.5,N
1620014375.5,286046996.6,N
1620014395.3,286046996.9,N
